sat.trackr.live / text

‹ back to catalog

STARLINK-4487

NORAD 53531 · 2022-101E

PAYLOAD ACTIVE UNKNOWN

§ Identity

Operator
Country
US
Launch date
2022-08-19
Launch site
AFETR
Launch vehicle
Mass (kg)
RCS (m²)

Purposes: comms

External: N2YO · Heavens-Above · Gunter

§ Orbital elements

Epoch: 2026-09-20T00:00:13.386816Z

Period
94.01 min
Inclination
53.1584°
Eccentricity
0.0001410
Mean motion
15.31700213 rev/d
Perigee alt
469.8 km
Apogee alt
471.7 km
Semi-major
6,848.9 km
B*
1.6233e-5
RAAN
270.1272°
Arg perigee
80.4610°
Mean anomaly
279.6550°
Rev number
22,565

§ Raw data

STARLINK-44871 53531U 22101E   26263.00015494  .00000139  00000+0  16233-4 0  99962 53531  53.1584 270.1272 0001410  80.4610 279.6550 15.31700213225658

JSON: /api/v1/satellites/53531 · /tle

For live sub-satellite position, see the globe view (requires WebGL).

§ Visibility from observer

Set your observer location to see the next 7 days of passes ≥ 10°. The values pass through the URL so the page stays shareable.

No JS? Fill the form by hand. The geolocation button needs JavaScript.